[[{"header":{"parameterUnit":"m.s-1","parameterCategory":1,"la1":30.2991,"la2":30.254,"lo1":-89.0895,"lo2":-89.0444,"dy":0.0017,"dx":0.0017,"nx":28,"ny":28,"refTime":"2025-04-04T21:00:00:Z","depth":0,"parameterNumber":2,"parameterNumberName":"U-component_of_WINDS"},"data":[0,0,0,0,0,0,0,0,0,0,0,0,0,0,0,0,0,0,0,0,0,0,0,0,0,0,0,0,0,0,0,0,0,0,0,0,0,0,0,0,0,0,0,0,0,0,0,0,0,0,0,0,0,0,0,0,0,0,-3.3004,-3.3005,0,-3.3073,-3.3074,-3.3075,-3.3089,-3.3088,-3.3088,-3.3087,-3.3158,-3.3161,-3.3163,0,0,0,0,0,0,0,0,0,0,0,0,0,-3.2883,-3.2886,-3.3004,-3.3005,-3.3006,-3.3073,-3.3074,-3.3075,-3.3089,-3.3088,-3.3087,-3.3087,-3.3158,-3.316,-3.3163,0,0,0,0,0,0,0,0,0,0,0,0,0,-3.2943,-3.2886,-3.3004,-3.302,-3.3023,-3.3073,-3.3074,-3.3075,-3.3089,-3.3088,-3.3087,-3.3086,-3.3157,-3.316,-3.3164,-3.3202,0,0,-3.3175,-3.3176,0,0,0,0,0,0,0,0,-3.2939,-3.2947,-3.3017,-3.3019,-3.3022,-3.3071,-3.3058,-3.3118,-3.3089,-3.3064,-3.3087,-3.3086,-3.313,-3.3136,-3.3151,-3.3206,-3.3209,-3.3175,-3.3177,-3.3179,-3.318,0,0,0,0,0,0,0,-3.2935,-3.2944,-3.3031,-3.3018,-3.3021,-3.3025,-3.3032,-3.3069,-3.3101,-3.3066,-3.3067,-3.3075,-3.3131,-3.3147,-3.3152,-3.321,-3.3175,-3.3178,-3.318,-3.3182,-3.33,-3.3301,0,0,0,0,0,0,-3.2928,-3.2941,-3.3029,-3.3033,-3.2978,-3.3028,-3.3036,-3.3056,-3.31,-3.3106,-3.3076,-3.3075,-3.3141,-3.3148,-3.3155,-3.3202,-3.3179,-3.3182,-3.3184,-3.3299,-3.33,-3.3301,0,0,0,0,0,0,-3.2925,-3.2936,-3.3026,-3.2987,-3.2999,-3.3031,-3.3053,-3.3058,-3.3074,-3.3108,-3.3113,-3.3086,-3.3141,-3.315,-3.319,-3.3205,-3.3184,-3.3187,-3.3298,-3.3299,-3.33,-3.3298,0,0,0,0,0,0,-3.2922,-3.2935,-3.2949,-3.2988,-3.3001,-3.306,-3.3054,-3.306,-3.308,-3.3081,-3.3119,-3.3125,-3.3141,-3.3185,-3.3194,-3.321,-3.319,-3.3296,-3.3298,-3.33,-3.3297,-3.3299,-3.3301,0,0,0,0,0,-3.2917,-3.2946,-3.295,-3.2961,-3.302,-3.3061,-3.3069,-3.3087,-3.3081,-3.3096,-3.3118,-3.3123,-3.3202,-3.3189,-3.3199,-3.3216,-3.3295,-3.3298,-3.33,-3.3296,-3.3299,-3.3301,0,0,0,0,0,0,-3.2909,-3.2951,-3.2956,-3.2998,-3.3026,-3.3063,-3.3083,-3.309,-3.312,-3.3119,-3.3141,-3.3149,-3.3188,-3.3207,-3.3191,-3.3256,-3.3249,-3.3253,-3.3242,-3.3245,-3.3247,-3.3241,-3.3193,0,0,0,0,0,-3.2912,-3.2941,-3.2977,-3.301,-3.3024,-3.3051,-3.307,-3.3081,-3.3111,-3.3123,-3.3147,-3.3176,-3.3208,-3.3228,-3.3258,-3.33,-3.3308,-3.3317,-3.3319,-3.3321,-3.3324,-3.3347,-3.3351,-3.3308,-3.3308,-3.3308,0,0,-3.2918,-3.2945,-3.2962,-3.3009,-3.3032,-3.3062,-3.3061,-3.3093,-3.3115,-3.3128,-3.3167,-3.3186,-3.322,-3.3261,-3.328,-3.3277,-3.3338,-3.3324,-3.3325,-3.3327,-3.335,-3.3354,-3.3357,-3.331,-3.3309,-3.3309,0,0,-3.2945,-3.2968,-3.2998,-3.3021,-3.3056,-3.3074,-3.3081,-3.3118,-3.3131,-3.3171,-3.3181,-3.3209,-3.3262,-3.3286,-3.3304,-3.3341,-3.3346,-3.335,-3.3361,-3.3383,-3.3386,-3.3389,-3.3401,-3.3406,-3.3354,-3.3354,-3.3354,0,-3.2948,-3.2993,-3.3013,-3.3044,-3.3065,-3.3078,-3.3108,-3.313,-3.3173,-3.3187,-3.3183,-3.3251,-3.3275,-3.3321,-3.333,-3.3345,-3.3354,-3.3345,-3.3384,-3.3388,-3.3391,-3.3402,-3.3407,-3.3354,-3.3354,-3.3354,-3.3354,0,-3.2995,-3.3027,-3.3047,-3.3088,-3.3111,-3.3141,-3.3166,-3.3187,-3.3197,-3.3215,-3.3256,-3.3285,-3.3322,-3.3334,-3.3344,-3.3382,-3.3379,-3.338,-3.3373,-3.3395,-3.3406,-3.3411,-3.3354,-3.3354,-3.3354,-3.3354,0,0,-3.3017,-3.3069,-3.3076,-3.3094,-3.3134,-3.3159,-3.319,-3.3226,-3.3243,-3.3273,-3.33,-3.3345,-3.3346,-3.3368,-3.3381,-3.3401,-3.3427,-3.3399,-3.34,-3.3402,-3.3469,-3.3467,-3.3472,-3.3431,-3.3432,-3.3433,-3.3466,0,-3.3047,-3.3103,-3.3122,-3.3169,-3.3198,-3.3212,-3.3239,-3.3267,-3.3285,-3.3313,-3.3333,-3.3364,-3.3364,-3.3377,-3.3397,-3.3419,-3.344,-3.3417,-3.3456,-3.3457,-3.3445,-3.3478,-3.3476,-3.3506,-3.3471,-3.3471,-3.3472,0,-3.309,-3.312,-3.3169,-3.3205,-3.3218,-3.3242,-3.3276,-3.3303,-3.3334,-3.3346,-3.337,-3.3383,-3.3416,-3.3409,-3.3455,-3.3439,-3.3456,-3.347,-3.3472,-3.3475,-3.3465,-3.3481,-3.3516,-3.352,-3.3479,-3.3479,-3.3478,0,-3.3099,-3.3152,-3.3188,-3.3204,-3.3247,-3.3264,-3.3282,-3.3313,-3.3334,-3.3364,-3.3377,-3.3411,-3.343,-3.3456,-3.3477,-3.3469,-3.3522,-3.3516,-3.3532,-3.3531,-3.3541,-3.354,-3.3578,-3.3555,-3.3554,-3.3554,-3.3554,0,-3.313,-3.3159,-3.3193,-3.3215,-3.3248,-3.327,-3.3303,-3.3323,-3.335,-3.3376,-3.3391,-3.3416,-3.3442,-3.3471,-3.3488,-3.3523,-3.3532,-3.3542,-3.3546,-3.354,-3.3539,-3.355,-3.3548,-3.3556,-3.3555,-3.3555,-3.3555,0,-3.3145,-3.3169,-3.3209,-3.3247,-3.3257,-3.328,-3.3312,-3.3334,-3.3354,-3.3387,-3.3396,-3.3426,-3.346,-3.3484,-3.3528,-3.3539,-3.3578,-3.3582,-3.3566,-3.3568,-3.3583,-3.3581,-3.3629,-3.3636,-3.3609,-3.3609,-3.3609,0,-3.3163,-3.3186,-3.3226,-3.3244,-3.3263,-3.3293,-3.3314,-3.3337,-3.3358,-3.3396,-3.3413,-3.3448,-3.3477,-3.353,-3.3557,-3.359,-3.3595,-3.3609,-3.36,-3.3593,-3.3594,-3.3591,-3.3593,-3.361,-3.361,-3.361,-3.3611,0,-3.3191,-3.3202,-3.3231,-3.3264,-3.3288,-3.3316,-3.3344,-3.3358,-3.3386,-3.3409,-3.3444,-3.3466,-3.3511,-3.3545,-3.3581,-3.3601,-3.361,-3.3614,-3.3619,-3.3612,-3.3602,-3.3607,-3.3569,-3.3612,-3.3612,-3.3612,-3.3612,-3.3612,-3.3208,-3.3228,-3.3259,-3.3291,-3.3315,-3.334,-3.3363,-3.3385,-3.3414,-3.3452,-3.3464,-3.35,-3.3531,-3.3581,-3.3601,-3.363,-3.3629,-3.3637,-3.3639,-3.364,-3.3639,-3.3599,-3.3637,-3.3637,-3.3637,-3.3637,-3.3637,0,-3.3236,-3.3256,-3.3286,-3.3324,-3.3349,-3.3356,-3.3387,-3.3407,-3.3439,-3.3467,-3.3495,-3.3535,-3.3569,-3.3598,-3.3632,-3.365,-3.3655,-3.3658,-3.3656,-3.366,-3.3638,-3.363,-3.3653,-3.3653,-3.3653,-3.3653,-3.3653,-3.3653,-3.3253,-3.3288,-3.3302,-3.3349,-3.337,-3.3405,-3.3422,-3.3446,-3.3469,-3.3512,-3.354,-3.3559,-3.3588,-3.3625,-3.3656,-3.3663,-3.3675,-3.3677,-3.3686,-3.3664,-3.3662,-3.366,-3.3652,-3.368,-3.368,-3.3705,-3.3705,-3.3705]},{"header":{"parameterUnit":"m.s-1","parameterCategory":1,"la1":30.2991,"la2":30.254,"lo1":-89.0895,"lo2":-89.0444,"dy":0.0017,"dx":0.0017,"nx":28,"ny":28,"refTime":"2025-04-04T21:00:00:Z","depth":0,"parameterNumber":3,"parameterNumberName":"V-component_of_WINDS"},"data":[0,0,0,0,0,0,0,0,0,0,0,0,0,0,0,0,0,0,0,0,0,0,0,0,0,0,0,0,0,0,0,0,0,0,0,0,0,0,0,0,0,0,0,0,0,0,0,0,0,0,0,0,0,0,0,0,0,0,4.8533,4.8534,0,4.8665,4.8666,4.8668,4.8656,4.8654,4.8652,4.865,4.8785,4.8791,4.8796,0,0,0,0,0,0,0,0,0,0,0,0,0,4.8273,4.8278,4.8533,4.8534,4.8536,4.8664,4.8666,4.8668,4.8656,4.8654,4.8652,4.8649,4.8784,4.879,4.8797,0,0,0,0,0,0,0,0,0,0,0,0,0,4.8393,4.8279,4.8532,4.8546,4.8548,4.8664,4.8666,4.8668,4.8657,4.8654,4.8651,4.8648,4.8782,4.879,4.8798,4.8909,0,0,4.8823,4.8826,0,0,0,0,0,0,0,0,4.8386,4.8403,4.8542,4.8545,4.8548,4.8641,4.8624,4.8749,4.8658,4.8616,4.865,4.8647,4.874,4.8751,4.8783,4.8915,4.8921,4.8823,4.8828,4.8832,4.8834,0,0,0,0,0,0,0,4.8378,4.8397,4.8585,4.8544,4.8548,4.8546,4.856,4.8648,4.8693,4.8619,4.8619,4.8634,4.8741,4.8775,4.8786,4.8923,4.8823,4.8831,4.8836,4.8839,4.9157,4.916,0,0,0,0,0,0,4.8367,4.839,4.8581,4.8589,4.8458,4.8553,4.8568,4.8614,4.8692,4.8701,4.8637,4.8633,4.8762,4.8776,4.879,4.8928,4.8832,4.884,4.8844,4.9153,4.9157,4.9161,0,0,0,0,0,0,4.8361,4.8384,4.8575,4.849,4.8514,4.8561,4.8612,4.8618,4.8652,4.8705,4.8714,4.8663,4.876,4.8779,4.888,4.8933,4.8843,4.8851,4.9149,4.9154,4.9159,4.9203,0,0,0,0,0,0,4.8354,4.8382,4.8424,4.8491,4.8518,4.8662,4.8615,4.8623,4.8666,4.8663,4.8732,4.8741,4.8759,4.8868,4.8888,4.8942,4.8857,4.9145,4.9151,4.9158,4.9197,4.9209,4.9219,0,0,0,0,0,4.8344,4.843,4.8426,4.8449,4.8572,4.8665,4.8681,4.8701,4.867,4.8714,4.8749,4.8739,4.8923,4.8878,4.8901,4.8958,4.9141,4.9149,4.9157,4.9192,4.9207,4.9219,0,0,0,0,0,0,4.8368,4.8439,4.8435,4.8545,4.8599,4.8663,4.8718,4.8715,4.8779,4.8774,4.8795,4.8811,4.8914,4.8946,4.8895,4.9072,4.9028,4.9041,4.9047,4.9061,4.9072,4.9063,4.8864,0,0,0,0,0,4.8386,4.8455,4.8514,4.8605,4.8633,4.8671,4.8712,4.8723,4.878,4.8803,4.8845,4.8901,4.8972,4.9018,4.9086,4.9201,4.9218,4.9252,4.9263,4.9272,4.9283,4.9349,4.9366,4.9187,4.9187,4.9187,0,0,4.8424,4.8471,4.8514,4.8611,4.8655,4.8728,4.869,4.8768,4.8823,4.8815,4.8914,4.8947,4.9011,4.912,4.9171,4.915,4.9336,4.9282,4.9289,4.9295,4.9359,4.9376,4.9391,4.9192,4.9191,4.9191,0,0,4.8531,4.8572,4.8655,4.8699,4.8766,4.8791,4.8811,4.8876,4.8898,4.8997,4.8994,4.9059,4.918,4.9227,4.9266,4.9393,4.9387,4.9415,4.9473,4.9537,4.9551,4.9564,4.9612,4.9628,4.9425,4.9425,4.9426,0,4.8569,4.8678,4.8697,4.8777,4.8821,4.8817,4.8902,4.8944,4.9029,4.906,4.9036,4.919,4.9233,4.9354,4.9386,4.9417,4.9442,4.9407,4.9548,4.9561,4.9573,4.9618,4.9636,4.9429,4.9428,4.9428,4.9428,0,4.8724,4.88,4.8858,4.8942,4.8992,4.9073,4.9106,4.9155,4.9161,4.9189,4.9292,4.9344,4.9423,4.9453,4.9459,4.9576,4.9562,4.9543,4.95,4.9593,4.9636,4.9653,4.9433,4.9432,4.9431,4.943,0,0,4.8849,4.8943,4.8964,4.9003,4.9077,4.9137,4.9219,4.9297,4.934,4.9399,4.9469,4.9573,4.9556,4.9601,4.9613,4.9669,4.977,4.9644,4.9646,4.9667,4.9905,4.992,4.994,4.9766,4.9769,4.9772,4.99,0,4.8965,4.911,4.9131,4.9259,4.9331,4.933,4.9402,4.9455,4.9484,4.955,4.9581,4.9656,4.9627,4.9654,4.971,4.9746,4.9818,4.9737,4.9834,4.9837,4.9819,4.9963,4.9979,5.0097,4.9917,4.992,4.9922,0,4.9119,4.9184,4.932,4.9387,4.9417,4.9481,4.9556,4.9618,4.968,4.9697,4.9749,4.9755,4.9841,4.9794,4.9914,4.9859,4.9899,4.9923,4.9928,4.994,4.9886,4.9979,5.0135,5.0154,4.9948,4.9946,4.9944,0,4.92,4.9321,4.9419,4.9451,4.9531,4.9576,4.9612,4.967,4.9717,4.9782,4.9813,4.9887,4.9929,4.9987,5.0013,4.9976,5.0133,5.0087,5.0151,5.0151,5.0185,5.0183,5.0352,5.0209,5.0208,5.0208,5.0207,0,4.9328,4.9412,4.9456,4.9517,4.9611,4.9634,4.9728,4.9761,4.9814,4.9882,4.9885,4.9949,4.9979,5.0048,5.0068,5.0167,5.0185,5.0202,5.0207,5.0203,5.0201,5.0231,5.0225,5.0213,5.0212,5.0211,5.021,0,4.9435,4.9467,4.9574,4.9641,4.966,4.9727,4.9785,4.9844,4.9872,4.9959,4.998,5.0026,5.0107,5.0139,5.0238,5.0252,5.0366,5.0363,5.0346,5.0347,5.0411,5.0405,5.0606,5.0635,5.047,5.0472,5.0473,0,4.9515,4.958,4.9654,4.97,4.9737,4.9811,4.9859,4.9884,4.9934,5.0011,5.0061,5.0143,5.0209,5.0339,5.0382,5.0458,5.0459,5.0524,5.047,5.0465,5.0463,5.0459,5.0467,5.0534,5.0536,5.0537,5.0538,0,4.9656,4.9669,4.9738,4.9814,4.9871,4.9932,4.9991,5.0028,5.0063,5.012,5.0203,5.0255,5.0357,5.0438,5.0517,5.0554,5.0554,5.0555,5.0574,5.0572,5.056,5.057,5.0375,5.055,5.0549,5.0548,5.0548,5.0547,4.9754,4.9812,4.9875,4.9952,4.9999,5.0055,5.0115,5.0151,5.0221,5.0307,5.0318,5.0408,5.047,5.0576,5.0617,5.0689,5.0672,5.0699,5.0706,5.0713,5.0719,5.0547,5.0703,5.0702,5.0702,5.0702,5.0702,0,4.9897,4.9937,5.0008,5.0091,5.0153,5.0146,5.0211,5.0263,5.0343,5.0401,5.0467,5.0564,5.0643,5.0692,5.0773,5.0821,5.0823,5.0841,5.0839,5.0848,5.0728,5.0705,5.0839,5.0839,5.0839,5.0839,5.0839,5.0839,4.9979,5.0078,5.0099,5.0223,5.0263,5.0352,5.039,5.0442,5.0489,5.0597,5.0664,5.0695,5.075,5.0835,5.0908,5.092,5.0951,5.0972,5.0983,5.087,5.0856,5.0843,5.0821,5.0977,5.0978,5.1097,5.1099,5.1099]}]]